Regional Weather Roundup
Issued by NWS State College, PA

Home | Current Version | Previous Version | Graphics & Text | Print | Product List | Glossary On
Versions: 1 2 3 4 5 6 7 8 9 10 11 12 13 14 15 16 17 18 19 20 21 22 23 24 25 26 27 28 29 30 31 32 33 34 35 36 37 38 39 40 41 42 43 44 45 46 47 48 49 50
000
ASUS41 KCTP 250203
RWRCTP

REGIONAL WEATHER ROUNDUP
NATIONAL WEATHER SERVICE STATE COLLEGE PA
1000 PM EDT TUE MAY 24 2016

Note: "fair" indicates few or no clouds below 12,000 feet with no
significant weather and/or obstructions to visibility.

* = STATION THAT DOES NOT REPORT PRECIPITATION /E.G. RAIN...SNOW...ETC/
    THUNDER OR FOG.

PAZ002>004-007>009-013>016-020>023-029>032-250300-
WESTERN PENNSYLVANIA

CITY           SKY/WX    TMP DP  RH WIND       PRES   REMARKS
ERIE           PTCLDY    64  40  41 S6        30.04R
MEADVILLE      CLOUDY    66  33  29 CALM      30.08R
FRANKLIN*      CLOUDY    64  39  39 NW3       30.11R
NEW CASTLE     FAIR      62  49  62 CALM      30.09R
BEAVER COUNTY  NOT AVBL
BUTLER*        CLEAR     63  48  59 CALM      30.12R
PITTSBURGH INT MOCLDY    71  48  43 SW5       30.09R
PITTSBURGH     CLEAR     70  48  45 W8        30.09R
INDIANA*       CLEAR     61  54  77 CALM      30.12R
LATROBE        PTCLDY    63  54  72 SW7       30.10R
WASHINGTON CO* CLEAR     57  52  82 CALM      30.11R
$$

PAZ004>006-010>012-017>019-024>028-033>037-041-042-045-046-049>053-250300-
CENTRAL PENNSYLVANIA

CITY           SKY/WX    TMP DP  RH WIND       PRES   REMARKS
BRADFORD       CLEAR     56  38  50 CALM      30.09R
DUBOIS         CLEAR     65  41  41 NW3       30.09R
CLEARFIELD     CLEAR     61  44  53 N6        30.08R
JOHNSTOWN      CLEAR     65  42  43 W7        30.12R
ALTOONA        CLEAR     63  46  54 CALM      30.09R
STATE COLLEGE  CLEAR     67  44  44 W6        30.05R
WILLIAMSPORT   CLEAR     63  45  51 W3        29.99R
SELINSGROVE    CLEAR     61  52  72 CALM      30.00R
FT INDIANTOWN  NOT AVBL
CAPITAL CITY   CLEAR     70  46  42 W10       30.00R
HARRISBURG     PTCLDY    71  47  42 NW8       29.98R
YORK           CLEAR     70  46  42 W6        30.01R
$$

PAZ038>040-043-044-047-048-054-055-060>062-067>071-250300-
EASTERN PENNSYLVANIA

CITY           SKY/WX    TMP DP  RH WIND       PRES   REMARKS
SCRANTON       CLEAR     63  44  50 E7        29.99R
MOUNT POCONO     N/A    N/A N/A N/A MISG      30.02R
ALLENTOWN      CLEAR     67  54  63 E6        29.98R
QUAKERTOWN*    CLEAR     63  55  77 CALM      30.00R
READING        CLEAR     71  48  43 W8        29.96R
LANCASTER      CLEAR     65  49  56 W7        29.98R
COATESVILLE    CLEAR     70  46  43 W5        30.00R
POTTSTOWN      PTCLDY    68  49  50 NE7       29.99R
BLUE BELL      PTCLDY    63  54  72 CALM      29.97R
DOYLESTOWN     CLEAR     62  54  74 CALM      29.99R
WILLOW GROVE   NOT AVBL
NORTH PHILA    CLEAR     66  55  67 NE6       29.98R
PHILADELPHIA   PTCLDY    76  47  35 W9        29.96R
$$



USA.gov is the U.S. government's official web portal to all federal, state and local government web resources and services.